CW5752 Weather Reports


time (UTC)temp
C
wind
direction
speed
KPH
gust
KPH
rain 1hr
cm
rain 24hr
cm
rain mn
cm
humidity
%
barometer
mb
20260901111022 21 0.0 0.0 0.00 0.00 0.00 93 1017.5
20260901110058 21 0.0 0.0 0.00 0.00 0.00 93 1017.3
20260901105022 21 0.0 0.0 0.00 0.00 0.00 93 1017.3
20260901104022 21 0.0 0.0 0.00 0.00 0.00 93 1017.3
20260901103024 21 0.0 0.0 0.00 0.00 0.00 93 1017.3
20260901102022 21 0.0 0.0 0.00 0.00 0.00 93 1017.3
20260901101022 21 0.0 0.0 0.00 0.00 0.00 93 1017.2
20260901100017 21 0.0 0.0 0.00 0.00 0.00 93 1017.2
20260901095037 21 0.0 0.0 0.00 0.00 0.00 93 1017.1
20260901094022 21 0.0 0.0 0.00 0.00 0.00 93 1017.1
20260901093022 21 0.0 0.0 0.00 0.00 0.00 93 1017.1
20260901092023 21 0.0 0.0 0.00 0.00 0.00 93 1017.0
20260901091022 21 0.0 0.0 0.00 0.00 0.00 92 1016.9
20260901090022 21 0.0 0.0 0.00 0.00 0.00 92 1016.8
20260901085017 21 0.0 0.0 0.00 0.00 0.00 92 1016.8
20260901084022 21 0.0 0.0 0.00 0.00 0.00 92 1016.7
20260901083022 21 0.0 0.0 0.00 0.00 0.00 91 1016.7
20260901082022 21 0.0 0.0 0.00 0.00 0.00 92 1016.7
20260901081022 21 0.0 0.0 0.00 0.00 0.00 92 1016.6
20260901080022 21 0.0 0.0 0.00 0.00 0.00 92 1016.6
20260901075023 21 0.0 0.0 0.00 0.00 0.00 92 1016.6
20260901074017 21 0.0 0.0 0.00 0.00 0.00 91 1016.6
20260901073022 22 0.0 0.0 0.00 0.00 0.00 90 1016.5
20260901072022 22 0.0 0.0 0.00 0.00 0.00 91 1016.5
20260901071023 22 0.0 0.0 0.00 0.00 0.00 91 1016.4
20260901070022 22 0.0 0.0 0.00 0.00 0.00 91 1016.4
20260901065022 22 0.0 0.0 0.00 0.00 0.00 91 1016.4
20260901064037 22 0.0 0.0 0.00 0.00 0.00 90 1016.4
20260901063020 22 0.0 0.0 0.00 0.00 0.00 91 1016.5
20260901062023 22 0.0 0.0 0.00 0.00 0.00 91 1016.5
20260901061022 22 0.0 0.0 0.00 0.00 0.00 90 1016.4
20260901060042 22 0.0 0.0 0.00 0.00 0.00 90 1016.4
20260901055022 23 0.0 0.0 0.00 0.00 0.00 89 1016.4
20260901054103 23 0.0 0.0 0.00 0.00 0.00 88 1016.4
20260901053017 23 0.0 0.0 0.00 0.00 0.00 88 1016.4
20260901052022 23 0.0 0.0 0.00 0.00 0.00 87 1016.5
20260901051102 24 0.0 0.0 0.00 0.00 0.00 85 1016.5
20260901050022 25 0.0 0.0 0.00 0.00 0.00 84 1016.5
20260901045021 25 0.0 1.6 0.00 0.00 0.00 84 1016.4
20260901044021 24 0.0 0.0 0.00 0.00 0.00 85 1016.4
20260901043021 24 0.0 0.0 0.00 0.00 0.00 85 1016.4
20260901042022 24 0.0 0.0 0.00 0.00 0.00 85 1016.3
20260901041021 25 0.0 0.0 0.00 0.00 0.00 85 1016.3
20260901040041 25 0.0 0.0 0.00 0.00 0.00 84 1016.4
20260901035016 25 0.0 0.0 0.00 0.00 0.00 84 1016.4
20260901034021 25 0.0 0.0 0.00 0.00 0.00 83 1016.4
20260901033021 25 0.0 0.0 0.00 0.00 0.00 82 1016.5
20260901032021 25 0.0 0.0 0.00 0.00 0.00 82 1016.5
20260901031021 26 0.0 0.0 0.00 0.00 0.00 81 1016.5
20260901030021 26 0.0 0.0 0.00 0.00 0.00 81 1016.6
20260901025016 26 0.0 0.0 0.00 0.00 0.00 81 1016.6
20260901024015 26 0.0 0.0 0.00 0.00 0.00 82 1016.6
20260901023021 25 0.0 0.0 0.00 0.00 0.00 84 1016.5
20260901022021 25 0.0 0.0 0.00 0.00 0.00 84 1016.5
20260901021021 25 0.0 0.0 0.00 0.00 0.00 83 1016.5
20260901020019 26 0.0 0.0 0.00 0.00 0.00 81 1016.2
20260901015021 26 0.0 0.0 0.00 0.00 0.00 81 1016.2
20260901014015 26 0.0 0.0 0.00 0.00 0.00 82 1016.1
20260901013041 26 0.0 0.0 0.00 0.00 0.00 80 1016.0
20260901012041 26 0.0 0.0 0.00 0.00 0.00 78 1015.9
20260901011046 27 0.0 0.0 0.00 0.00 0.00 79 1015.8
20260901010021 27 0.0 0.0 0.00 0.00 0.00 76 1015.7
20260901005021 27 0.0 0.0 0.00 0.00 0.00 77 1015.7
20260901004016 27 0.0 0.0 0.00 0.00 0.00 74 1015.6
20260901003035 29 0.0 0.0 0.00 0.00 0.00 68 1015.5
20260901002020 29 0.0 0.0 0.00 0.00 0.00 66 1015.4
20260901001020 30 0.0 0.0 0.00 0.00 0.00 64 1015.4
20260901000021 31 182 0.0 3.2 0.00 0.00 0.00 62 1015.5
20260831235041 31 184 0.0 11.3 0.00 0.00 0.00 58 1015.5
20260831234021 32 172 0.0 6.4 0.00 0.00 0.00 57 1015.5
20260831233015 32 171 0.0 4.8 0.00 0.00 0.00 57 1015.6
20260831232021 32 184 0.0 9.7 0.00 0.00 0.00 55 1015.7
20260831231021 32 180 1.6 12.9 0.00 0.00 0.00 54 1015.6
20260831230021 33 187 0.0 4.8 0.00 0.00 0.00 56 1015.5
20260831225020 33 201 0.0 11.3 0.00 0.00 0.00 55 1015.4
20260831224041 33 175 1.6 9.7 0.00 0.00 0.00 53 1015.6
20260831223021 33 174 1.6 14.5 0.00 0.00 0.00 50 1015.6
20260831222016 33 182 1.6 11.3 0.00 0.00 0.00 50 1015.6
20260831221042 34 185 1.6 11.3 0.00 0.00 0.00 51 1015.5
20260831220021 34 182 3.2 14.5 0.00 0.00 0.00 48 1015.5
20260831215021 34 147 0.0 4.8 0.00 0.00 0.00 49 1015.5
20260831214041 34 157 1.6 8.0 0.00 0.00 0.00 48 1015.5
20260831213101 34 171 0.0 6.4 0.00 0.00 0.00 48 1015.6
20260831212015 35 178 1.6 11.3 0.00 0.00 0.00 48 1015.7
20260831211015 35 174 1.6 9.7 0.00 0.00 0.00 45 1015.7
20260831210021 35 182 1.6 11.3 0.00 0.00 0.00 42 1015.8
20260831205041 35 205 3.2 14.5 0.00 0.00 0.00 42 1016.0
20260831204021 35 213 3.2 14.5 0.00 0.00 0.00 41 1015.9
20260831203018 35 187 1.6 9.7 0.00 0.00 0.00 45 1016.1
20260831202020 35 190 4.8 12.9 0.00 0.00 0.00 42 1016.3
20260831201036 35 195 1.6 11.3 0.00 0.00 0.00 43 1016.5
20260831200021 35 234 3.2 12.9 0.00 0.00 0.00 44 1016.5
20260831195020 35 219 4.8 12.9 0.00 0.00 0.00 40 1016.6
20260831194020 35 223 3.2 14.5 0.00 0.00 0.00 41 1016.7
20260831193021 35 209 4.8 11.3 0.00 0.00 0.00 39 1016.8
20260831192021 35 222 4.8 12.9 0.00 0.00 0.00 40 1016.9
20260831191017 35 210 4.8 14.5 0.00 0.00 0.00 41 1016.9
20260831190016 35 209 3.2 16.1 0.00 0.00 0.00 41 1017.0
20260831185021 35 206 4.8 16.1 0.00 0.00 0.00 42 1017.0
20260831184021 34 180 3.2 16.1 0.00 0.00 0.00 43 1017.0
20260831183021 34 173 3.2 12.9 0.00 0.00 0.00 43 1017.2
20260831182020 35 202 4.8 16.1 0.00 0.00 0.00 45 1017.4
20260831181026 34 187 4.8 14.5 0.00 0.00 0.00 43 1017.5
20260831180015 34 227 3.2 11.3 0.00 0.00 0.00 45 1017.5
20260831175020 34 220 6.4 14.5 0.00 0.00 0.00 45 1017.7
20260831174021 34 218 3.2 14.5 0.00 0.00 0.00 49 1017.8
20260831173101 33 230 3.2 12.9 0.00 0.00 0.00 50 1017.8
20260831172021 33 236 4.8 12.9 0.00 0.00 0.00 51 1017.9
20260831171021 33 221 3.2 14.5 0.00 0.00 0.00 52 1018.0
20260831170020 33 248 3.2 12.9 0.00 0.00 0.00 53 1018.1
20260831165015 33 212 4.8 12.9 0.00 0.00 0.00 51 1018.2
20260831164020 33 215 4.8 9.7 0.00 0.00 0.00 55 1018.2
20260831163021 32 186 3.2 16.1 0.00 0.00 0.00 56 1018.4
20260831162021 32 216 3.2 9.7 0.00 0.00 0.00 59 1018.4
20260831161020 31 207 6.4 14.5 0.00 0.00 0.00 57 1018.3
20260831160021 31 185 6.4 16.1 0.00 0.00 0.00 59 1018.3
20260831155015 31 183 4.8 14.5 0.00 0.00 0.00 61 1018.3
20260831154015 31 201 3.2 14.5 0.00 0.00 0.00 63 1018.5
20260831153021 31 213 4.8 12.9 0.00 0.00 0.00 61 1018.5
20260831152020 31 216 4.8 11.3 0.00 0.00 0.00 64 1018.4
20260831151021 30 222 3.2 16.1 0.00 0.00 0.00 65 1018.3
20260831150021 30 236 3.2 14.5 0.00 0.00 0.00 67 1018.3
20260831145021 29 196 3.2 8.0 0.00 0.00 0.00 67 1018.3
20260831144015 29 206 3.2 9.7 0.00 0.00 0.00 68 1018.4
20260831143020 28 216 3.2 12.9 0.00 0.00 0.00 69 1018.2
20260831142020 28 221 3.2 11.3 0.00 0.00 0.00 70 1018.3
20260831141020 27 210 3.2 9.7 0.00 0.00 0.00 72 1018.3
20260831140020 27 211 3.2 8.0 0.00 0.00 0.00 74 1018.2
20260831135021 27 211 3.2 9.7 0.00 0.00 0.00 75 1018.1
20260831134015 26 197 3.2 12.9 0.00 0.00 0.00 77 1018.0
20260831133035 26 196 0.0 11.3 0.00 0.00 0.00 79 1017.9
20260831132021 25 181 1.6 9.7 0.00 0.00 0.00 80 1017.9
20260831131040 25 184 0.0 9.7 0.00 0.00 0.00 82 1017.8
20260831130021 25 183 0.0 6.4 0.00 0.00 0.00 83 1017.5
20260831125020 24 184 0.0 8.0 0.00 0.00 0.00 84 1017.5
20260831124020 24 180 0.0 6.4 0.00 0.00 0.00 84 1017.4
20260831123015 23 183 0.0 6.4 0.00 0.00 0.00 86 1017.5
20260831122020 23 190 0.0 3.2 0.00 0.00 0.00 86 1017.4
20260831121021 23 0.0 1.6 0.00 0.00 0.00 87 1017.3
20260831120020 23 190 0.0 3.2 0.00 0.00 0.00 88 1017.2
20260831115021 23 190 0.0 3.2 0.00 0.00 0.00 88 1017.1
20260831114020 22 0.0 0.0 0.00 0.00 0.00 88 1017.1
20260831113020 22 0.0 0.0 0.00 0.00 0.00 88 1017.1
20260831112015 22 0.0 0.0 0.00 0.00 0.00 89 1017.1